STARLINK-3852, 52345

Orbit data source: Space-Track

STARLINK-3852, 52345 is a payload satellite owned by SpaceX/Seattle (US) in LEO that was launched on Fri, 29 Apr 2022 UTC via an FALCON 9 launch vehicle from the Air Force Eastern Test Range (AFETR). Payload-class satellites include a variety of spacecraft equipped with specific instruments for various scientific and technological missions. These include communications satellites like Starlink; space stations such as the ISS; scientific satellites like the Hubble; Earth observation satellites from companies like Planet Labs, Umbra, and HawkEye 360; GPS; miniature CubeSats for education and research; and military/defense satellites.

Loading next visibility...
Identifier
52345, 2022-045Q
Orbit
LEO
Country
Flag of USUS
Related business
Manufacturer
SpaceX/Seattle
Mission
Operational Commercial Communications
Bus & Motor
STARLINK, Unknown motor
Mass
297 kg wet, ~275 kg dry
Launch date (UTC)
2022-04-29 (4 years ago)
Launch vehicle
FALCON 9
Launch site
Air Force Eastern Test Range (AFETR)
Object type
Payload
Rocket body
Debris
Shape & HBR
Box + 1 Pan, 10.1 m
Radar Cross Section
11.087 m², Large (>1 m²)

Expand to show TLE details & history
Last TLE update: 17 hours ago

TLE from 17 hours ago
0 STARLINK-3852
1 52345U 22045Q   25348.88789994  .00000611  00000-0  56517-4 0  9992
2 52345  53.2158 219.9733 0001366  97.4579 262.6568 15.08829910202963
Epoch: 2025-12-14T21:18Z
TLE epoch observation values (Epoch: 2025-12-14T21:18:34.554Z)
Latitude
-0.00007°
Longitude
176.53491°
Altitude
540.792 km
Speed
7.593 km/s
True Right ascension
14h 39m 53s
True Declination
0° 00' 00"
Sunlit
Object was in daylight at epoch
Visualization orbit readout
Latitude
Unknown
Longitude
Unknown
Altitude
Unknown
Speed
Unknown
Apparent Right ascension
Unknown
Apparent Declination
Unknown
Sunlit
N/A
Visualization observer readout
Local Sidereal Time
13:19:51
Azimuth
Unknown
Elevation
Unknown
Doppler factor
Unknown
Orbital elements
Apogee altitude
540.964 km
Perigee altitude
539.074 km
Semi-major axis
6,918.156 km
Eccentricity
0.00014
Inclination
53.2158°
RAAN
219.9733°
Arg. of periapsis
97.4579°
True anomaly
262.64128°
Mean anomaly
262.6568°
Eccentric anomaly
262.64904°
Mean motion
3.77188 °/min
Orbital period
95.44 mins
BSTAR
0.000056517
Loading maneuver chart data...
Computing Atmospheric mass density...
Loading historical data...
Loading historical data...
Loading historical data...
Loading historical data...
Loading historical data...
Loading historical data...
Loading historical data...

Documentation

Showing up to 5 results
|